Simultaneous Nadir Overpasses (SNOs) Predictions

Prediction of SNOs between AQUA and NPP Satellite Orbit:

Table of predicted SNOs for the next 14.0 days since TLE Epoch: 3/25/2023
Index Date (AQUA) Time (AQUA) Lat,Lon (AQUA) SZA (AQUA ) Date (NPP) Time (NPP) Lat,Lon (NPP) SZA (NPP ) Distance(km) Time Diff (sec)
1 03/27/2023 07:25:39 -79.74, 148.23 90.41 03/27/2023 07:25:39 -79.74, 148.37 90.43 3.03 0
2 03/29/2023 22:01:15 -79.71, -70.88 91.40 03/29/2023 22:01:07 -79.71, -70.78 91.41 2.14 8
3 03/29/2023 22:50:34 79.89, 98.20 88.31 03/29/2023 22:51:46 79.88, 98.15 88.27 1.07 72
4 04/01/2023 12:36:49 -79.70, 70.24 92.43 04/01/2023 12:36:35 -79.70, 70.28 92.43 0.82 14
5 04/01/2023 13:26:09 79.84,-121.01 87.34 04/01/2023 13:27:15 79.84,-121.11 87.31 2.06 66
6 04/04/2023 03:12:22 -79.66,-148.97 93.38 04/04/2023 03:12:04 -79.65,-149.02 93.36 1.00 18
7 04/04/2023 04:01:38 79.94, 20.88 86.17 04/04/2023 04:02:39 79.94, 21.02 86.10 2.89 61
8 04/06/2023 17:47:49 -79.75, -7.14 94.53 04/06/2023 17:47:28 -79.75, -6.99 94.55 3.15 21



Historial Predications of SNOs between AQUA and NPP
